Time,TemperatureF,DewpointF,PressureIn,WindDirection,WindDirectionDegrees,WindSpeedMPH,WindSpeedGustMPH,Humidity,HourlyPrecipIn,Conditions,Clouds,dailyrainin,SoftwareType,DateUTC
2013-09-07 00:00:00,74.8,66.0,29.97,SSW,196,0.0,0.0,74,0.00,,,0.00,VWS V14.01,2013-09-07 05:00:00,
2013-09-07 00:02:00,74.9,66.1,29.97,SSW,196,0.0,0.0,74,0.00,,,0.00,VWS V14.01,2013-09-07 05:02:00,
2013-09-07 00:07:00,74.7,66.3,29.97,SSW,196,0.0,0.0,75,0.00,,,0.00,VWS V14.01,2013-09-07 05:07:00,
2013-09-07 00:12:00,74.6,66.2,29.97,SSW,195,0.0,0.0,75,0.00,,,0.00,VWS V14.01,2013-09-07 05:12:00,
2013-09-07 00:17:00,74.4,66.0,29.97,SSW,196,0.0,0.0,75,0.00,,,0.00,VWS V14.01,2013-09-07 05:17:00,
2013-09-07 00:22:00,74.3,65.9,29.97,SSW,196,0.0,0.0,75,0.00,,,0.00,VWS V14.01,2013-09-07 05:22:00,
2013-09-07 00:27:00,74.1,65.7,29.97,SSW,195,0.0,0.0,75,0.00,,,0.00,VWS V14.01,2013-09-07 05:27:00,
2013-09-07 00:30:00,74.1,65.7,29.97,SSW,196,0.0,0.0,75,0.00,,,0.00,VWS V14.01,2013-09-07 05:30:00,
2013-09-07 00:32:00,74.0,65.6,29.97,SSW,196,0.0,0.0,75,0.00,,,0.00,VWS V14.01,2013-09-07 05:32:00,
2013-09-07 00:37:00,73.9,65.5,29.98,SSW,195,0.0,0.0,75,0.00,,,0.00,VWS V14.01,2013-09-07 05:37:00,
2013-09-07 00:42:00,73.8,65.8,29.97,SSW,196,0.0,0.0,76,0.00,,,0.00,VWS V14.01,2013-09-07 05:42:00,
2013-09-07 00:48:00,73.7,65.7,29.98,SSW,196,0.0,0.0,76,0.00,,,0.00,VWS V14.01,2013-09-07 05:48:00,
2013-09-07 00:53:00,73.6,65.6,29.98,SSW,196,0.0,0.0,76,0.00,,,0.00,VWS V14.01,2013-09-07 05:53:00,
2013-09-07 00:58:00,73.5,65.5,29.98,SSW,196,0.0,0.0,76,0.00,,,0.00,VWS V14.01,2013-09-07 05:58:00,
2013-09-07 01:00:00,73.4,65.4,29.98,SSW,196,0.0,0.0,76,0.00,,,0.00,VWS V14.01,2013-09-07 06:00:00,
2013-09-07 01:03:00,73.4,65.4,29.98,SSW,196,0.0,0.0,76,0.00,,,0.00,VWS V14.01,2013-09-07 06:03:00,
2013-09-07 01:08:00,73.2,65.6,29.97,SSW,196,0.0,0.0,77,0.00,,,0.00,VWS V14.01,2013-09-07 06:08:00,
2013-09-07 01:13:00,73.1,65.5,29.97,SSW,195,0.0,0.0,77,0.00,,,0.00,VWS V14.01,2013-09-07 06:13:00,
2013-09-07 01:18:00,73.0,65.4,29.97,SSW,195,0.0,0.0,77,0.00,,,0.00,VWS V14.01,2013-09-07 06:18:00,
2013-09-07 01:23:00,72.8,65.6,29.97,SSW,195,0.0,0.0,78,0.00,,,0.00,VWS V14.01,2013-09-07 06:23:00,
2013-09-07 01:28:00,72.7,65.4,29.97,SSW,195,0.0,0.0,78,0.00,,,0.00,VWS V14.01,2013-09-07 06:28:00,
2013-09-07 01:30:00,72.6,65.3,29.97,SSW,195,0.0,0.0,78,0.00,,,0.00,VWS V14.01,2013-09-07 06:30:00,
2013-09-07 01:33:00,72.5,65.3,29.97,SSW,196,0.0,0.0,78,0.00,,,0.00,VWS V14.01,2013-09-07 06:33:00,
2013-09-07 01:38:00,72.4,65.5,29.97,SSW,195,0.0,0.0,79,0.00,,,0.00,VWS V14.01,2013-09-07 06:38:00,
2013-09-07 01:43:00,72.2,65.3,29.97,SSW,195,0.0,0.0,79,0.00,,,0.00,VWS V14.01,2013-09-07 06:43:00,
2013-09-07 01:48:00,72.1,65.6,29.97,SSW,196,0.0,0.0,80,0.00,,,0.00,VWS V14.01,2013-09-07 06:48:00,
2013-09-07 01:53:00,71.9,65.4,29.97,SSW,195,0.0,0.0,80,0.00,,,0.00,VWS V14.01,2013-09-07 06:53:00,
2013-09-07 01:58:00,71.8,65.3,29.97,SSW,196,0.0,0.0,80,0.00,,,0.00,VWS V14.01,2013-09-07 06:58:00,
2013-09-07 02:00:00,71.7,65.2,29.97,SSW,195,0.0,0.0,80,0.00,,,0.00,VWS V14.01,2013-09-07 07:00:00,
2013-09-07 02:03:00,71.7,65.2,29.97,SSW,195,0.0,0.0,80,0.00,,,0.00,VWS V14.01,2013-09-07 07:03:00,
2013-09-07 02:08:00,71.7,65.2,29.97,SSW,195,0.0,0.0,80,0.00,,,0.00,VWS V14.01,2013-09-07 07:08:00,
2013-09-07 02:13:00,71.6,65.5,29.97,SSW,195,0.0,0.0,81,0.00,,,0.00,VWS V14.01,2013-09-07 07:13:00,
2013-09-07 02:18:00,71.5,65.4,29.97,SSW,196,0.0,0.0,81,0.00,,,0.00,VWS V14.01,2013-09-07 07:18:00,
2013-09-07 02:23:00,71.5,65.4,29.97,SSW,196,0.0,0.0,81,0.00,,,0.00,VWS V14.01,2013-09-07 07:23:00,
2013-09-07 02:28:00,71.4,65.3,29.97,SSW,196,0.0,0.0,81,0.00,,,0.00,VWS V14.01,2013-09-07 07:28:00,
2013-09-07 02:30:00,71.4,65.3,29.97,SSW,196,0.0,0.0,81,0.00,,,0.00,VWS V14.01,2013-09-07 07:30:00,
2013-09-07 02:33:00,71.3,65.2,29.97,SSW,196,0.0,0.0,81,0.00,,,0.00,VWS V14.01,2013-09-07 07:33:00,
2013-09-07 02:38:00,71.3,65.2,29.97,SSW,196,0.0,0.0,81,0.00,,,0.00,VWS V14.01,2013-09-07 07:38:00,
2013-09-07 02:43:00,71.3,65.2,29.96,SSW,196,0.0,0.0,81,0.00,,,0.00,VWS V14.01,2013-09-07 07:43:00,
2013-09-07 02:48:00,71.2,65.1,29.96,SSW,196,0.0,0.0,81,0.00,,,0.00,VWS V14.01,2013-09-07 07:48:00,
2013-09-07 02:53:00,71.2,65.1,29.96,SSW,195,0.0,0.0,81,0.00,,,0.00,VWS V14.01,2013-09-07 07:53:00,
2013-09-07 02:58:00,71.1,65.0,29.96,SSW,195,0.0,0.0,81,0.00,,,0.00,VWS V14.01,2013-09-07 07:58:00,
2013-09-07 03:00:00,71.0,64.9,29.96,SSW,196,0.0,0.0,81,0.00,,,0.00,VWS V14.01,2013-09-07 08:00:00,
2013-09-07 03:03:00,71.0,64.9,29.96,SSW,196,0.0,0.0,81,0.00,,,0.00,VWS V14.01,2013-09-07 08:03:00,
2013-09-07 03:08:00,71.0,64.9,29.96,SSW,196,0.0,0.0,81,0.00,,,0.00,VWS V14.01,2013-09-07 08:08:00,
2013-09-07 03:13:00,70.9,64.8,29.96,SSW,195,0.0,0.0,81,0.00,,,0.00,VWS V14.01,2013-09-07 08:13:00,
2013-09-07 03:18:00,70.9,64.8,29.96,SSW,195,0.0,0.0,81,0.00,,,0.00,VWS V14.01,2013-09-07 08:18:00,
2013-09-07 03:23:00,70.9,64.8,29.96,SSW,196,0.0,1.0,81,0.00,,,0.00,VWS V14.01,2013-09-07 08:23:00,
2013-09-07 03:28:00,70.9,64.4,29.96,SSW,196,0.0,1.0,80,0.00,,,0.00,VWS V14.01,2013-09-07 08:28:00,
2013-09-07 03:30:00,70.9,64.4,29.96,SSW,196,0.0,1.0,80,0.00,,,0.00,VWS V14.01,2013-09-07 08:30:00,
2013-09-07 03:33:00,70.9,64.4,29.96,SSW,196,0.0,0.0,80,0.00,,,0.00,VWS V14.01,2013-09-07 08:33:00,
2013-09-07 03:38:00,70.9,64.4,29.96,SSW,196,0.0,0.0,80,0.00,,,0.00,VWS V14.01,2013-09-07 08:38:00,
2013-09-07 03:43:00,70.9,64.4,29.97,SSW,196,0.0,0.0,80,0.00,,,0.00,VWS V14.01,2013-09-07 08:43:00,
2013-09-07 03:48:00,70.9,64.4,29.97,SSW,195,0.0,0.0,80,0.00,,,0.00,VWS V14.01,2013-09-07 08:48:00,
2013-09-07 03:53:00,70.8,64.3,29.97,SSW,196,0.0,0.0,80,0.00,,,0.00,VWS V14.01,2013-09-07 08:53:00,
2013-09-07 03:58:00,70.8,64.3,29.97,SSW,196,0.0,0.0,80,0.00,,,0.00,VWS V14.01,2013-09-07 08:58:00,
2013-09-07 04:00:00,70.8,64.3,29.97,SSW,196,0.0,0.0,80,0.00,,,0.00,VWS V14.01,2013-09-07 09:00:00,
2013-09-07 04:03:00,70.7,64.2,29.97,SSW,196,0.0,0.0,80,0.00,,,0.00,VWS V14.01,2013-09-07 09:03:00,
2013-09-07 04:08:00,70.7,64.2,29.97,SSW,195,0.0,0.0,80,0.00,,,0.00,VWS V14.01,2013-09-07 09:08:00,
2013-09-07 04:13:00,70.6,64.1,29.97,SSW,195,0.0,0.0,80,0.00,,,0.00,VWS V14.01,2013-09-07 09:13:00,
2013-09-07 04:18:00,70.5,64.0,29.97,SSW,196,0.0,0.0,80,0.00,,,0.00,VWS V14.01,2013-09-07 09:18:00,
2013-09-07 04:23:00,70.4,64.3,29.97,SSW,195,0.0,0.0,81,0.00,,,0.00,VWS V14.01,2013-09-07 09:23:00,
2013-09-07 04:28:00,70.3,64.2,29.97,SSW,195,0.0,0.0,81,0.00,,,0.00,VWS V14.01,2013-09-07 09:28:00,
2013-09-07 04:30:00,70.3,64.2,29.97,SSW,196,0.0,0.0,81,0.00,,,0.00,VWS V14.01,2013-09-07 09:30:00,
2013-09-07 04:33:00,70.3,64.2,29.97,SSW,196,0.0,0.0,81,0.00,,,0.00,VWS V14.01,2013-09-07 09:33:00,
2013-09-07 04:38:00,70.2,64.1,29.97,SSW,195,0.0,0.0,81,0.00,,,0.00,VWS V14.01,2013-09-07 09:38:00,
2013-09-07 04:43:00,70.1,64.0,29.97,SSW,196,0.0,0.0,81,0.00,,,0.00,VWS V14.01,2013-09-07 09:43:00,
2013-09-07 04:48:00,70.0,63.9,29.97,SSW,196,0.0,0.0,81,0.00,,,0.00,VWS V14.01,2013-09-07 09:48:00,
2013-09-07 04:53:00,70.0,63.9,29.97,SSW,196,0.0,0.0,81,0.00,,,0.00,VWS V14.01,2013-09-07 09:53:00,
2013-09-07 04:58:00,69.9,63.8,29.97,SSW,196,0.0,0.0,81,0.00,,,0.00,VWS V14.01,2013-09-07 09:58:00,
2013-09-07 05:00:00,69.9,63.8,29.97,SSW,196,0.0,0.0,81,0.00,,,0.00,VWS V14.01,2013-09-07 10:00:00,
2013-09-07 05:03:00,69.9,63.8,29.97,SSW,196,0.0,0.0,81,0.00,,,0.00,VWS V14.01,2013-09-07 10:03:00,
2013-09-07 05:08:00,69.9,63.8,29.97,SSW,195,0.0,0.0,81,0.00,,,0.00,VWS V14.01,2013-09-07 10:08:00,
2013-09-07 05:13:00,69.8,63.7,29.98,SSW,195,0.0,1.0,81,0.00,,,0.00,VWS V14.01,2013-09-07 10:13:00,
2013-09-07 05:18:00,69.9,63.8,29.98,SSW,196,0.0,1.0,81,0.00,,,0.00,VWS V14.01,2013-09-07 10:18:00,
2013-09-07 05:23:00,69.9,63.8,29.98,SSW,196,0.0,1.0,81,0.00,,,0.00,VWS V14.01,2013-09-07 10:23:00,
2013-09-07 05:28:00,70.0,63.5,29.98,SSW,195,0.0,1.0,80,0.00,,,0.00,VWS V14.01,2013-09-07 10:28:00,
2013-09-07 05:30:00,70.0,63.5,29.98,SSW,196,0.0,1.0,80,0.00,,,0.00,VWS V14.01,2013-09-07 10:30:00,
2013-09-07 05:33:00,70.0,63.5,29.98,SSW,196,0.0,0.0,80,0.00,,,0.00,VWS V14.01,2013-09-07 10:33:00,
2013-09-07 05:38:00,70.1,63.7,29.98,SSW,195,0.0,0.0,80,0.00,,,0.00,VWS V14.01,2013-09-07 10:38:00,
2013-09-07 05:43:00,70.2,63.8,29.98,SSW,196,0.0,0.0,80,0.00,,,0.00,VWS V14.01,2013-09-07 10:43:00,
2013-09-07 05:48:00,70.2,63.8,29.98,SSW,196,0.0,0.0,80,0.00,,,0.00,VWS V14.01,2013-09-07 10:48:00,
2013-09-07 05:53:00,70.2,63.4,29.98,SSW,196,0.0,0.0,79,0.00,,,0.00,VWS V14.01,2013-09-07 10:53:00,
2013-09-07 05:58:00,70.2,63.4,29.98,SSW,195,0.0,0.0,79,0.00,,,0.00,VWS V14.01,2013-09-07 10:58:00,
2013-09-07 06:00:00,70.3,63.5,29.98,SSW,196,0.0,0.0,79,0.00,,,0.00,VWS V14.01,2013-09-07 11:00:00,
2013-09-07 06:03:00,70.3,63.5,29.98,SSW,195,0.0,0.0,79,0.00,,,0.00,VWS V14.01,2013-09-07 11:03:00,
2013-09-07 06:08:00,70.3,63.5,29.98,SSW,196,0.0,0.0,79,0.00,,,0.00,VWS V14.01,2013-09-07 11:08:00,
2013-09-07 06:13:00,70.3,63.5,29.98,SSW,195,0.0,1.0,79,0.00,,,0.00,VWS V14.01,2013-09-07 11:13:00,
2013-09-07 06:18:00,70.3,63.5,29.98,SSW,195,0.0,1.0,79,0.00,,,0.00,VWS V14.01,2013-09-07 11:18:00,
2013-09-07 06:23:00,70.3,63.5,29.98,SSW,195,0.0,1.0,79,0.00,,,0.00,VWS V14.01,2013-09-07 11:23:00,
2013-09-07 06:28:00,70.3,63.5,29.98,SSW,195,0.0,1.0,79,0.00,,,0.00,VWS V14.01,2013-09-07 11:28:00,
2013-09-07 06:30:00,70.3,63.5,29.98,SSW,196,0.0,1.0,79,0.00,,,0.00,VWS V14.01,2013-09-07 11:30:00,
2013-09-07 06:33:00,70.3,63.5,29.98,SSW,196,0.0,1.0,79,0.00,,,0.00,VWS V14.01,2013-09-07 11:33:00,
2013-09-07 06:38:00,70.3,63.5,29.98,SSW,196,0.0,1.0,79,0.00,,,0.00,VWS V14.01,2013-09-07 11:38:00,
2013-09-07 06:43:00,70.3,63.5,29.98,SSW,195,0.0,1.0,79,0.00,,,0.00,VWS V14.01,2013-09-07 11:43:00,
2013-09-07 06:48:00,70.2,63.4,29.98,SSW,196,0.0,1.0,79,0.00,,,0.00,VWS V14.01,2013-09-07 11:48:00,
2013-09-07 06:53:00,70.2,63.4,29.99,SSW,196,0.0,1.0,79,0.00,,,0.00,VWS V14.01,2013-09-07 11:53:00,
2013-09-07 06:58:00,70.1,63.3,29.98,SSW,195,0.0,1.0,79,0.00,,,0.00,VWS V14.01,2013-09-07 11:58:00,
2013-09-07 07:00:00,70.2,63.4,29.99,SSW,196,0.0,1.0,79,0.00,,,0.00,VWS V14.01,2013-09-07 12:00:00,
2013-09-07 07:03:00,70.2,63.4,29.98,SSW,196,0.0,0.0,79,0.00,,,0.00,VWS V14.01,2013-09-07 12:03:00,
2013-09-07 07:08:00,70.2,63.4,29.99,SSW,195,0.0,0.0,79,0.00,,,0.00,VWS V14.01,2013-09-07 12:08:00,
2013-09-07 07:14:00,70.2,63.0,29.99,SSW,196,0.0,0.0,78,0.00,,,0.00,VWS V14.01,2013-09-07 12:14:00,
2013-09-07 07:18:00,70.3,63.1,29.99,SSW,196,0.0,0.0,78,0.00,,,0.00,VWS V14.01,2013-09-07 12:18:00,
2013-09-07 07:24:00,70.3,63.1,29.99,SSW,196,0.0,1.0,78,0.00,,,0.00,VWS V14.01,2013-09-07 12:24:00,
2013-09-07 07:29:00,70.4,63.2,29.99,SSW,196,0.0,1.0,78,0.00,,,0.00,VWS V14.01,2013-09-07 12:29:00,
2013-09-07 07:30:00,70.5,63.3,29.99,SSW,196,0.0,1.0,78,0.00,,,0.00,VWS V14.01,2013-09-07 12:30:00,
2013-09-07 07:34:00,70.5,63.3,29.99,SSW,195,0.0,0.0,78,0.00,,,0.00,VWS V14.01,2013-09-07 12:34:00,
2013-09-07 07:39:00,70.6,63.4,29.99,SSW,196,0.0,1.0,78,0.00,,,0.00,VWS V14.01,2013-09-07 12:39:00,
2013-09-07 07:44:00,70.7,63.5,29.99,SSW,196,0.0,1.0,78,0.00,,,0.00,VWS V14.01,2013-09-07 12:44:00,
2013-09-07 07:49:00,70.8,63.6,29.99,SSW,196,0.0,1.0,78,0.00,,,0.00,VWS V14.01,2013-09-07 12:49:00,
2013-09-07 07:54:00,70.9,63.7,29.99,SSW,196,0.0,1.0,78,0.00,,,0.00,VWS V14.01,2013-09-07 12:54:00,
2013-09-07 07:59:00,71.1,63.9,29.99,SSW,196,0.0,1.0,78,0.00,,,0.00,VWS V14.01,2013-09-07 12:59:00,
2013-09-07 08:04:00,71.2,64.0,29.99,SSW,196,0.0,0.0,78,0.00,,,0.00,VWS V14.01,2013-09-07 13:04:00,
2013-09-07 08:09:00,71.3,64.1,29.99,SSW,196,0.0,1.0,78,0.00,,,0.00,VWS V14.01,2013-09-07 13:09:00,
2013-09-07 08:14:00,71.5,64.3,29.99,SSW,196,0.0,1.0,78,0.00,,,0.00,VWS V14.01,2013-09-07 13:14:00,
2013-09-07 08:19:00,71.7,64.5,29.99,SSW,196,0.0,2.0,78,0.00,,,0.00,VWS V14.01,2013-09-07 13:19:00,
2013-09-07 08:24:00,71.9,64.7,29.99,SSW,195,0.0,2.0,78,0.00,,,0.00,VWS V14.01,2013-09-07 13:24:00,
2013-09-07 08:29:00,72.3,64.7,29.99,SSW,195,0.0,2.0,77,0.00,,,0.00,VWS V14.01,2013-09-07 13:29:00,
2013-09-07 08:30:00,72.5,64.9,29.99,SSW,196,0.0,2.0,77,0.00,,,0.00,VWS V14.01,2013-09-07 13:30:00,
2013-09-07 08:34:00,72.6,65.0,29.99,SSW,196,0.0,0.0,77,0.00,,,0.00,VWS V14.01,2013-09-07 13:34:00,
2013-09-07 08:39:00,72.9,64.9,29.99,SSW,196,0.0,1.0,76,0.00,,,0.00,VWS V14.01,2013-09-07 13:39:00,
2013-09-07 08:44:00,73.2,65.2,29.99,SSW,195,0.0,3.0,76,0.00,,,0.00,VWS V14.01,2013-09-07 13:44:00,
2013-09-07 08:49:00,73.5,65.1,29.99,SSW,195,0.0,3.0,75,0.00,,,0.00,VWS V14.01,2013-09-07 13:49:00,
2013-09-07 08:54:00,74.0,65.6,29.99,SSW,195,0.0,3.0,75,0.00,,,0.00,VWS V14.01,2013-09-07 13:54:00,
2013-09-07 08:59:00,74.8,65.6,29.99,SSW,195,0.0,3.0,73,0.00,,,0.00,VWS V14.01,2013-09-07 13:59:00,
2013-09-07 09:00:00,75.2,65.6,29.99,SSW,195,1.0,3.0,72,0.00,,,0.00,VWS V14.01,2013-09-07 14:00:00,
2013-09-07 09:04:00,75.5,65.8,29.99,SSW,194,2.0,3.0,72,0.00,,,0.00,VWS V14.01,2013-09-07 14:04:00,
2013-09-07 09:09:00,76.1,65.6,29.99,South,186,0.0,3.0,70,0.00,,,0.00,VWS V14.01,2013-09-07 14:09:00,
2013-09-07 09:14:00,76.6,66.1,29.99,South,187,0.0,3.0,70,0.00,,,0.00,VWS V14.01,2013-09-07 14:14:00,
2013-09-07 09:19:00,77.1,66.2,29.99,South,182,0.0,3.0,69,0.00,,,0.00,VWS V14.01,2013-09-07 14:19:00,
2013-09-07 09:24:00,77.7,66.3,29.99,ESE,115,0.0,3.0,68,0.00,,,0.00,VWS V14.01,2013-09-07 14:24:00,
2013-09-07 09:29:00,78.3,66.4,29.99,ESE,115,0.0,5.0,67,0.00,,,0.00,VWS V14.01,2013-09-07 14:29:00,
2013-09-07 09:30:00,78.7,66.8,30.00,SW,223,0.0,5.0,67,0.00,,,0.00,VWS V14.01,2013-09-07 14:30:00,
2013-09-07 09:34:00,79.2,66.9,30.00,SSW,202,0.0,2.0,66,0.00,,,0.00,VWS V14.01,2013-09-07 14:34:00,
2013-09-07 09:39:00,80.5,66.8,30.00,SSE,149,0.0,4.0,63,0.00,,,0.00,VWS V14.01,2013-09-07 14:39:00,
2013-09-07 09:44:00,81.5,67.7,30.00,SSW,213,0.0,5.0,63,0.00,,,0.00,VWS V14.01,2013-09-07 14:44:00,
2013-09-07 09:49:00,82.2,67.4,30.00,SW,223,0.0,8.0,61,0.00,,,0.00,VWS V14.01,2013-09-07 14:49:00,
2013-09-07 09:54:00,83.1,68.3,30.00,SE,136,2.0,8.0,61,0.00,,,0.00,VWS V14.01,2013-09-07 14:54:00,
2013-09-07 09:59:00,83.6,67.8,30.00,SE,128,0.0,8.0,59,0.00,,,0.00,VWS V14.01,2013-09-07 14:59:00,
2013-09-07 10:00:00,83.9,67.6,30.00,SE,125,0.0,8.0,58,0.00,,,0.00,VWS V14.01,2013-09-07 15:00:00,
2013-09-07 10:04:00,84.1,67.2,30.00,SE,126,2.0,2.0,57,0.00,,,0.00,VWS V14.01,2013-09-07 15:04:00,
2013-09-07 10:09:00,84.8,67.4,30.00,SSW,205,0.0,7.0,56,0.00,,,0.00,VWS V14.01,2013-09-07 15:09:00,
2013-09-07 10:14:00,85.0,67.6,30.00,SW,229,1.0,7.0,56,0.00,,,0.00,VWS V14.01,2013-09-07 15:14:00,
2013-09-07 10:19:00,85.4,67.9,30.00,ENE,61,4.0,7.0,56,0.00,,,0.00,VWS V14.01,2013-09-07 15:19:00,
2013-09-07 10:24:00,85.8,68.3,30.00,SE,132,1.0,7.0,56,0.00,,,0.00,VWS V14.01,2013-09-07 15:24:00,
2013-09-07 10:29:00,86.1,68.6,30.00,SSE,161,2.0,7.0,56,0.00,,,0.00,VWS V14.01,2013-09-07 15:29:00,
2013-09-07 10:30:00,86.3,68.8,30.00,South,178,0.0,7.0,56,0.00,,,0.00,VWS V14.01,2013-09-07 15:30:00,
2013-09-07 10:34:00,86.5,67.9,30.00,South,182,0.0,4.0,54,0.00,,,0.00,VWS V14.01,2013-09-07 15:34:00,
2013-09-07 10:39:00,86.9,68.3,30.00,SE,126,0.0,6.0,54,0.00,,,0.00,VWS V14.01,2013-09-07 15:39:00,
2013-09-07 10:44:00,87.1,69.0,30.00,SE,146,0.0,6.0,55,0.00,,,0.00,VWS V14.01,2013-09-07 15:44:00,
2013-09-07 10:49:00,87.5,69.4,30.00,SSE,156,1.0,7.0,55,0.00,,,0.00,VWS V14.01,2013-09-07 15:49:00,
2013-09-07 10:54:00,87.9,68.7,30.00,SSE,150,0.0,7.0,53,0.00,,,0.00,VWS V14.01,2013-09-07 15:54:00,
2013-09-07 10:59:00,88.0,68.7,30.00,SSE,161,1.0,7.0,53,0.00,,,0.00,VWS V14.01,2013-09-07 15:59:00,
2013-09-07 11:00:00,88.1,68.8,30.00,South,176,4.0,7.0,53,0.00,,,0.00,VWS V14.01,2013-09-07 16:00:00,
2013-09-07 11:04:00,88.3,69.0,30.00,SSW,193,0.0,4.0,53,0.00,,,0.00,VWS V14.01,2013-09-07 16:04:00,
2013-09-07 11:09:00,89.0,69.7,30.00,WSW,244,0.0,6.0,53,0.00,,,0.00,VWS V14.01,2013-09-07 16:09:00,
2013-09-07 11:14:00,89.4,69.5,30.00,SSE,148,1.0,6.0,52,0.00,,,0.00,VWS V14.01,2013-09-07 16:14:00,
2013-09-07 11:19:00,89.6,69.7,30.00,SE,140,1.0,6.0,52,0.00,,,0.00,VWS V14.01,2013-09-07 16:19:00,
2013-09-07 11:24:00,90.1,69.6,30.00,SE,143,1.0,6.0,51,0.00,,,0.00,VWS V14.01,2013-09-07 16:24:00,
2013-09-07 11:29:00,90.7,70.1,30.00,SE,128,0.0,6.0,51,0.00,,,0.00,VWS V14.01,2013-09-07 16:29:00,
2013-09-07 11:30:00,90.8,69.6,30.00,SE,126,0.0,6.0,50,0.00,,,0.00,VWS V14.01,2013-09-07 16:30:00,
2013-09-07 11:34:00,90.8,69.6,29.99,SE,126,0.0,1.0,50,0.00,,,0.00,VWS V14.01,2013-09-07 16:34:00,
2013-09-07 11:39:00,91.4,70.2,29.99,SE,141,1.0,5.0,50,0.00,,,0.00,VWS V14.01,2013-09-07 16:39:00,
2013-09-07 11:44:00,91.9,71.2,29.99,SE,136,0.0,5.0,51,0.00,,,0.00,VWS V14.01,2013-09-07 16:44:00,
2013-09-07 11:49:00,92.4,70.5,29.99,SW,223,0.0,5.0,49,0.00,,,0.00,VWS V14.01,2013-09-07 16:49:00,
2013-09-07 11:54:00,92.8,69.6,29.99,SSW,207,0.0,6.0,47,0.00,,,0.00,VWS V14.01,2013-09-07 16:54:00,
2013-09-07 11:59:00,92.9,71.5,29.99,SE,127,0.0,6.0,50,0.00,,,0.00,VWS V14.01,2013-09-07 16:59:00,
2013-09-07 12:00:00,93.2,70.6,29.99,South,179,1.0,6.0,48,0.00,,,0.00,VWS V14.01,2013-09-07 17:00:00,
2013-09-07 12:04:00,93.3,70.7,29.99,SSW,205,1.0,8.0,48,0.00,,,0.00,VWS V14.01,2013-09-07 17:04:00,
2013-09-07 12:09:00,93.3,70.1,29.99,SW,217,0.0,8.0,47,0.00,,,0.00,VWS V14.01,2013-09-07 17:09:00,
2013-09-07 12:14:00,93.4,69.5,29.99,SE,138,0.0,8.0,46,0.00,,,0.00,VWS V14.01,2013-09-07 17:14:00,
2013-09-07 12:19:00,93.9,70.0,29.98,SE,137,0.0,8.0,46,0.00,,,0.00,VWS V14.01,2013-09-07 17:19:00,
2013-09-07 12:24:00,94.5,69.9,29.98,NNW,330,6.0,10.0,45,0.00,,,0.00,VWS V14.01,2013-09-07 17:24:00,
2013-09-07 12:29:00,95.1,69.8,29.98,SSW,194,1.0,10.0,44,0.00,,,0.00,VWS V14.01,2013-09-07 17:29:00,
2013-09-07 12:30:00,95.3,69.3,29.98,WSW,248,5.0,10.0,43,0.00,,,0.00,VWS V14.01,2013-09-07 17:30:00,
2013-09-07 12:34:00,95.2,70.5,29.98,South,190,1.0,6.0,45,0.00,,,0.00,VWS V14.01,2013-09-07 17:34:00,
2013-09-07 12:39:00,95.4,69.4,29.98,SSE,149,1.0,9.0,43,0.00,,,0.00,VWS V14.01,2013-09-07 17:39:00,
2013-09-07 12:44:00,95.6,70.2,29.98,SSE,148,0.0,9.0,44,0.00,,,0.00,VWS V14.01,2013-09-07 17:44:00,
2013-09-07 12:49:00,96.2,70.1,29.98,SSW,195,0.0,9.0,43,0.00,,,0.00,VWS V14.01,2013-09-07 17:49:00,
2013-09-07 12:54:00,96.4,70.3,29.97,SE,140,2.0,9.0,43,0.00,,,0.00,VWS V14.01,2013-09-07 17:54:00,
2013-09-07 12:59:00,96.3,69.5,29.97,SSW,206,1.0,9.0,42,0.00,,,0.00,VWS V14.01,2013-09-07 17:59:00,
2013-09-07 13:00:00,96.3,70.2,29.97,SE,136,0.0,9.0,43,0.00,,,0.00,VWS V14.01,2013-09-07 18:00:00,
2013-09-07 13:04:00,96.3,70.2,29.97,SE,131,1.0,6.0,43,0.00,,,0.00,VWS V14.01,2013-09-07 18:04:00,
2013-09-07 13:09:00,96.0,68.5,29.97,South,173,0.0,6.0,41,0.00,,,0.00,VWS V14.01,2013-09-07 18:09:00,
2013-09-07 13:14:00,96.5,70.4,29.97,South,174,1.0,6.0,43,0.00,,,0.00,VWS V14.01,2013-09-07 18:14:00,
2013-09-07 13:19:00,96.9,69.3,29.97,South,188,5.0,8.0,41,0.00,,,0.00,VWS V14.01,2013-09-07 18:19:00,
2013-09-07 13:24:00,96.7,69.8,29.96,SSW,192,6.0,8.0,42,0.00,,,0.00,VWS V14.01,2013-09-07 18:24:00,
2013-09-07 13:29:00,97.0,69.4,29.96,SW,217,0.0,8.0,41,0.00,,,0.00,VWS V14.01,2013-09-07 18:29:00,
2013-09-07 13:30:00,97.0,69.4,29.96,South,172,4.0,8.0,41,0.00,,,0.00,VWS V14.01,2013-09-07 18:30:00,
2013-09-07 13:35:00,96.8,70.6,29.96,South,173,1.0,4.0,43,0.00,,,0.00,VWS V14.01,2013-09-07 18:35:00,
2013-09-07 13:40:00,96.8,69.9,29.96,SSW,209,8.0,8.0,42,0.00,,,0.00,VWS V14.01,2013-09-07 18:40:00,
2013-09-07 13:45:00,97.0,70.1,29.96,SSW,198,2.0,8.0,42,0.00,,,0.00,VWS V14.01,2013-09-07 18:45:00,
2013-09-07 13:50:00,97.4,70.5,29.96,SW,216,7.0,8.0,42,0.00,,,0.00,VWS V14.01,2013-09-07 18:50:00,
2013-09-07 13:55:00,97.2,69.6,29.95,ESE,117,0.0,8.0,41,0.00,,,0.00,VWS V14.01,2013-09-07 18:55:00,
2013-09-07 14:00:00,96.9,70.7,29.95,ESE,117,0.0,8.0,43,0.00,,,0.00,VWS V14.01,2013-09-07 19:00:00,
2013-09-07 14:05:00,97.5,71.3,29.95,SSW,192,1.0,5.0,43,0.00,,,0.00,VWS V14.01,2013-09-07 19:05:00,
2013-09-07 14:10:00,98.0,70.3,29.94,SW,227,1.0,7.0,41,0.00,,,0.00,VWS V14.01,2013-09-07 19:10:00,
2013-09-07 14:15:00,98.1,70.4,29.94,West,281,0.0,7.0,41,0.00,,,0.00,VWS V14.01,2013-09-07 19:15:00,
2013-09-07 14:20:00,98.2,71.2,29.94,ESE,122,0.0,7.0,42,0.00,,,0.00,VWS V14.01,2013-09-07 19:20:00,
2013-09-07 14:25:00,98.5,70.8,29.94,WSW,253,0.0,9.0,41,0.00,,,0.00,VWS V14.01,2013-09-07 19:25:00,
2013-09-07 14:30:00,98.5,70.0,29.94,SE,145,0.0,9.0,40,0.00,,,0.00,VWS V14.01,2013-09-07 19:30:00,
2013-09-07 14:35:00,98.6,70.1,29.94,SSE,167,1.0,3.0,40,0.00,,,0.00,VWS V14.01,2013-09-07 19:35:00,
2013-09-07 14:40:00,98.9,70.4,29.93,South,180,0.0,5.0,40,0.00,,,0.00,VWS V14.01,2013-09-07 19:40:00,
2013-09-07 14:45:00,99.3,70.7,29.93,ENE,77,0.0,5.0,40,0.00,,,0.00,VWS V14.01,2013-09-07 19:45:00,
2013-09-07 14:50:00,99.6,69.5,29.93,SE,126,1.0,6.0,38,0.00,,,0.00,VWS V14.01,2013-09-07 19:50:00,
2013-09-07 14:55:00,99.6,69.5,29.92,WSW,247,1.0,6.0,38,0.00,,,0.00,VWS V14.01,2013-09-07 19:55:00,
2013-09-07 15:00:00,99.9,69.8,29.92,West,273,3.0,6.0,38,0.00,,,0.00,VWS V14.01,2013-09-07 20:00:00,
2013-09-07 15:05:00,99.6,68.7,29.92,SE,126,0.0,4.0,37,0.00,,,0.00,VWS V14.01,2013-09-07 20:05:00,
2013-09-07 15:10:00,99.6,68.7,29.92,SE,125,0.0,4.0,37,0.00,,,0.00,VWS V14.01,2013-09-07 20:10:00,
2013-09-07 15:15:00,99.7,69.6,29.92,SE,143,0.0,4.0,38,0.00,,,0.00,VWS V14.01,2013-09-07 20:15:00,
2013-09-07 15:20:00,100.0,68.3,29.91,SE,136,0.0,6.0,36,0.00,,,0.00,VWS V14.01,2013-09-07 20:20:00,
2013-09-07 15:25:00,100.5,68.7,29.91,SE,130,0.0,6.0,36,0.00,,,0.00,VWS V14.01,2013-09-07 20:25:00,
2013-09-07 15:30:00,100.5,69.5,29.91,SW,215,0.0,6.0,37,0.00,,,0.00,VWS V14.01,2013-09-07 20:30:00,
2013-09-07 15:35:00,99.9,69.0,29.91,SW,214,0.0,2.0,37,0.00,,,0.00,VWS V14.01,2013-09-07 20:35:00,
2013-09-07 15:40:00,99.8,67.3,29.91,SSW,210,1.0,8.0,35,0.00,,,0.00,VWS V14.01,2013-09-07 20:40:00,
2013-09-07 15:45:00,100.2,69.2,29.90,ESE,121,1.0,8.0,37,0.00,,,0.00,VWS V14.01,2013-09-07 20:45:00,
2013-09-07 15:50:00,99.9,69.8,29.90,SE,125,0.0,8.0,38,0.00,,,0.00,VWS V14.01,2013-09-07 20:50:00,
2013-09-07 15:55:00,100.3,69.3,29.90,SE,125,0.0,8.0,37,0.00,,,0.00,VWS V14.01,2013-09-07 20:55:00,
2013-09-07 16:00:00,100.2,68.4,29.90,SW,223,3.0,8.0,36,0.00,,,0.00,VWS V14.01,2013-09-07 21:00:00,
2013-09-07 16:05:00,100.3,68.5,29.90,SW,220,0.0,2.0,36,0.00,,,0.00,VWS V14.01,2013-09-07 21:05:00,
2013-09-07 16:10:00,100.5,67.1,29.89,WSW,244,0.0,6.0,34,0.00,,,0.00,VWS V14.01,2013-09-07 21:10:00,
2013-09-07 16:15:00,100.1,67.5,29.89,South,175,0.0,8.0,35,0.00,,,0.00,VWS V14.01,2013-09-07 21:15:00,
2013-09-07 16:20:00,100.0,67.5,29.89,East,95,0.0,8.0,35,0.00,,,0.00,VWS V14.01,2013-09-07 21:20:00,
2013-09-07 16:25:00,100.0,67.5,29.89,SSW,209,0.0,8.0,35,0.00,,,0.00,VWS V14.01,2013-09-07 21:25:00,
2013-09-07 16:30:00,100.4,68.6,29.89,SSE,162,0.0,8.0,36,0.00,,,0.00,VWS V14.01,2013-09-07 21:30:00,
2013-09-07 16:35:00,100.2,67.6,29.89,ENE,71,0.0,4.0,35,0.00,,,0.00,VWS V14.01,2013-09-07 21:35:00,
2013-09-07 16:40:00,100.2,66.8,29.89,SSE,168,1.0,5.0,34,0.00,,,0.00,VWS V14.01,2013-09-07 21:40:00,
2013-09-07 16:45:00,100.2,67.6,29.89,South,176,1.0,5.0,35,0.00,,,0.00,VWS V14.01,2013-09-07 21:45:00,
2013-09-07 16:50:00,99.9,67.4,29.89,SE,142,2.0,5.0,35,0.00,,,0.00,VWS V14.01,2013-09-07 21:50:00,
2013-09-07 16:55:00,99.6,67.1,29.89,South,184,0.0,5.0,35,0.00,,,0.00,VWS V14.01,2013-09-07 21:55:00,
2013-09-07 17:00:00,99.6,67.9,29.89,SW,232,7.0,7.0,36,0.00,,,0.00,VWS V14.01,2013-09-07 22:00:00,
2013-09-07 17:05:00,99.8,67.3,29.89,SE,134,1.0,5.0,35,0.00,,,0.00,VWS V14.01,2013-09-07 22:05:00,
2013-09-07 17:10:00,99.5,67.0,29.88,SW,229,3.0,7.0,35,0.00,,,0.00,VWS V14.01,2013-09-07 22:10:00,
2013-09-07 17:15:00,99.1,67.5,29.88,ESE,121,0.0,7.0,36,0.00,,,0.00,VWS V14.01,2013-09-07 22:15:00,
2013-09-07 17:20:00,98.7,67.9,29.89,SE,130,0.0,7.0,37,0.00,,,0.00,VWS V14.01,2013-09-07 22:20:00,
2013-09-07 17:25:00,98.5,67.0,29.88,SE,131,0.0,7.0,36,0.00,,,0.00,VWS V14.01,2013-09-07 22:25:00,
2013-09-07 17:30:00,98.2,66.7,29.88,SE,140,0.0,7.0,36,0.00,,,0.00,VWS V14.01,2013-09-07 22:30:00,
2013-09-07 17:35:00,97.8,67.1,29.88,SE,142,0.0,1.0,37,0.00,,,0.00,VWS V14.01,2013-09-07 22:35:00,
2013-09-07 17:40:00,97.3,67.5,29.89,SSE,147,0.0,4.0,38,0.00,,,0.00,VWS V14.01,2013-09-07 22:40:00,
2013-09-07 17:45:00,96.9,67.1,29.89,SSE,147,0.0,4.0,38,0.00,,,0.00,VWS V14.01,2013-09-07 22:45:00,
2013-09-07 17:50:00,96.6,68.3,29.89,South,180,0.0,5.0,40,0.00,,,0.00,VWS V14.01,2013-09-07 22:50:00,
2013-09-07 17:55:00,96.3,68.1,29.89,South,181,0.0,5.0,40,0.00,,,0.00,VWS V14.01,2013-09-07 22:55:00,
2013-09-07 18:00:00,95.9,69.1,29.89,South,181,0.0,5.0,42,0.00,,,0.00,VWS V14.01,2013-09-07 23:00:00,
2013-09-07 18:05:00,95.6,68.2,29.89,South,181,0.0,0.0,41,0.00,,,0.00,VWS V14.01,2013-09-07 23:05:00,
2013-09-07 18:10:00,95.4,68.7,29.89,South,181,0.0,0.0,42,0.00,,,0.00,VWS V14.01,2013-09-07 23:10:00,
2013-09-07 18:15:00,95.1,67.7,29.88,South,181,0.0,1.0,41,0.00,,,0.00,VWS V14.01,2013-09-07 23:15:00,
2013-09-07 18:20:00,94.8,68.2,29.88,South,181,0.0,1.0,42,0.00,,,0.00,VWS V14.01,2013-09-07 23:20:00,
2013-09-07 18:25:00,94.6,68.0,29.88,South,180,0.0,1.0,42,0.00,,,0.00,VWS V14.01,2013-09-07 23:25:00,
2013-09-07 18:30:00,94.2,68.3,29.88,South,181,0.0,1.0,43,0.00,,,0.00,VWS V14.01,2013-09-07 23:30:00,
2013-09-07 18:35:00,94.0,68.1,29.88,South,180,0.0,0.0,43,0.00,,,0.00,VWS V14.01,2013-09-07 23:35:00,
2013-09-07 18:40:00,93.7,68.5,29.88,South,180,0.0,0.0,44,0.00,,,0.00,VWS V14.01,2013-09-07 23:40:00,
2013-09-07 18:45:00,93.6,69.1,29.88,South,181,0.0,0.0,45,0.00,,,0.00,VWS V14.01,2013-09-07 23:45:00,
2013-09-07 18:50:00,93.4,68.9,29.88,South,181,0.0,0.0,45,0.00,,,0.00,VWS V14.01,2013-09-07 23:50:00,
2013-09-07 18:55:00,93.1,69.3,29.88,South,181,0.0,0.0,46,0.00,,,0.00,VWS V14.01,2013-09-07 23:55:00,
2013-09-07 19:00:00,92.9,69.1,29.88,South,181,0.0,0.0,46,0.00,,,0.00,VWS V14.01,2013-09-08 00:00:00,
2013-09-07 19:05:00,92.6,69.4,29.88,South,180,0.0,0.0,47,0.00,,,0.00,VWS V14.01,2013-09-08 00:05:00,
2013-09-07 19:10:00,92.2,69.7,29.88,South,181,0.0,0.0,48,0.00,,,0.00,VWS V14.01,2013-09-08 00:10:00,
2013-09-07 19:15:00,91.8,69.9,29.88,South,181,0.0,0.0,49,0.00,,,0.00,VWS V14.01,2013-09-08 00:15:00,
2013-09-07 19:20:00,91.4,69.6,29.88,South,181,0.0,0.0,49,0.00,,,0.00,VWS V14.01,2013-09-08 00:20:00,
2013-09-07 19:25:00,90.9,69.7,29.88,South,181,0.0,0.0,50,0.00,,,0.00,VWS V14.01,2013-09-08 00:25:00,
2013-09-07 19:30:00,90.4,69.8,29.88,South,181,0.0,0.0,51,0.00,,,0.00,VWS V14.01,2013-09-08 00:30:00,
2013-09-07 19:35:00,89.8,69.8,29.88,South,181,0.0,0.0,52,0.00,,,0.00,VWS V14.01,2013-09-08 00:35:00,
2013-09-07 19:40:00,89.2,69.8,29.88,South,181,0.0,0.0,53,0.00,,,0.00,VWS V14.01,2013-09-08 00:40:00,
2013-09-07 19:45:00,88.6,69.8,29.88,South,180,0.0,0.0,54,0.00,,,0.00,VWS V14.01,2013-09-08 00:45:00,
2013-09-07 19:50:00,88.1,69.9,29.88,South,181,0.0,0.0,55,0.00,,,0.00,VWS V14.01,2013-09-08 00:50:00,
2013-09-07 19:55:00,87.5,69.4,29.88,South,180,0.0,0.0,55,0.00,,,0.00,VWS V14.01,2013-09-08 00:55:00,
2013-09-07 20:00:00,87.1,69.5,29.88,South,181,0.0,0.0,56,0.00,,,0.00,VWS V14.01,2013-09-08 01:00:00,
2013-09-07 20:06:00,86.5,69.5,29.88,South,181,0.0,0.0,57,0.00,,,0.00,VWS V14.01,2013-09-08 01:06:00,
2013-09-07 20:11:00,86.1,70.1,29.88,South,181,0.0,0.0,59,0.00,,,0.00,VWS V14.01,2013-09-08 01:11:00,
2013-09-07 20:16:00,85.6,69.1,29.89,South,180,0.0,0.0,58,0.00,,,0.00,VWS V14.01,2013-09-08 01:16:00,
2013-09-07 20:21:00,85.2,69.8,29.89,South,181,0.0,0.0,60,0.00,,,0.00,VWS V14.01,2013-09-08 01:21:00,
2013-09-07 20:26:00,84.8,69.4,29.89,South,180,0.0,0.0,60,0.00,,,0.00,VWS V14.01,2013-09-08 01:26:00,
2013-09-07 20:30:00,84.4,69.5,29.89,South,181,0.0,0.0,61,0.00,,,0.00,VWS V14.01,2013-09-08 01:30:00,
2013-09-07 20:31:00,84.5,69.1,29.89,South,180,0.0,0.0,60,0.00,,,0.00,VWS V14.01,2013-09-08 01:31:00,
2013-09-07 20:36:00,84.2,69.3,29.89,South,180,0.0,0.0,61,0.00,,,0.00,VWS V14.01,2013-09-08 01:36:00,
2013-09-07 20:41:00,83.9,69.5,29.89,South,181,0.0,0.0,62,0.00,,,0.00,VWS V14.01,2013-09-08 01:41:00,
2013-09-07 20:46:00,83.6,69.7,29.89,South,181,0.0,0.0,63,0.00,,,0.00,VWS V14.01,2013-09-08 01:46:00,
2013-09-07 20:51:00,83.4,69.9,29.89,South,181,0.0,0.0,64,0.00,,,0.00,VWS V14.01,2013-09-08 01:51:00,
2013-09-07 20:56:00,83.2,69.8,29.90,South,181,0.0,0.0,64,0.00,,,0.00,VWS V14.01,2013-09-08 01:56:00,
2013-09-07 21:00:00,82.9,69.9,29.90,South,181,0.0,0.0,65,0.00,,,0.00,VWS V14.01,2013-09-08 02:00:00,
2013-09-07 21:01:00,83.0,70.0,29.90,South,181,0.0,0.0,65,0.00,,,0.00,VWS V14.01,2013-09-08 02:01:00,
2013-09-07 21:06:00,82.8,69.8,29.90,South,180,0.0,0.0,65,0.00,,,0.00,VWS V14.01,2013-09-08 02:06:00,
2013-09-07 21:11:00,82.6,70.1,29.90,South,181,0.0,0.0,66,0.00,,,0.00,VWS V14.01,2013-09-08 02:11:00,
2013-09-07 21:16:00,82.5,70.4,29.90,South,180,0.0,0.0,67,0.00,,,0.00,VWS V14.01,2013-09-08 02:16:00,
2013-09-07 21:21:00,82.3,70.3,29.90,South,181,0.0,0.0,67,0.00,,,0.00,VWS V14.01,2013-09-08 02:21:00,
2013-09-07 21:26:00,82.1,70.5,29.90,South,181,0.0,0.0,68,0.00,,,0.00,VWS V14.01,2013-09-08 02:26:00,
2013-09-07 21:30:00,82.0,70.4,29.90,South,181,0.0,0.0,68,0.00,,,0.00,VWS V14.01,2013-09-08 02:30:00,
2013-09-07 21:31:00,82.0,70.4,29.91,South,181,0.0,0.0,68,0.00,,,0.00,VWS V14.01,2013-09-08 02:31:00,
2013-09-07 21:36:00,81.8,70.6,29.91,South,181,0.0,0.0,69,0.00,,,0.00,VWS V14.01,2013-09-08 02:36:00,
2013-09-07 21:41:00,81.7,70.6,29.91,South,180,0.0,0.0,69,0.00,,,0.00,VWS V14.01,2013-09-08 02:41:00,
2013-09-07 21:46:00,81.5,70.4,29.91,South,181,0.0,0.0,69,0.00,,,0.00,VWS V14.01,2013-09-08 02:46:00,
2013-09-07 21:51:00,81.4,70.3,29.91,South,181,0.0,0.0,69,0.00,,,0.00,VWS V14.01,2013-09-08 02:51:00,
2013-09-07 21:56:00,81.2,70.5,29.91,South,180,0.0,0.0,70,0.00,,,0.00,VWS V14.01,2013-09-08 02:56:00,
2013-09-07 22:00:00,81.1,70.4,29.91,South,181,0.0,0.0,70,0.00,,,0.00,VWS V14.01,2013-09-08 03:00:00,
2013-09-07 22:01:00,81.1,70.4,29.91,South,181,0.0,0.0,70,0.00,,,0.00,VWS V14.01,2013-09-08 03:01:00,
2013-09-07 22:06:00,80.9,70.2,29.91,South,181,0.0,0.0,70,0.00,,,0.00,VWS V14.01,2013-09-08 03:06:00,
2013-09-07 22:11:00,80.8,69.7,29.91,South,180,0.0,0.0,69,0.00,,,0.00,VWS V14.01,2013-09-08 03:11:00,
2013-09-07 22:16:00,80.7,69.6,29.91,South,181,0.0,0.0,69,0.00,,,0.00,VWS V14.01,2013-09-08 03:16:00,
2013-09-07 22:21:00,80.5,69.0,29.91,South,181,0.0,0.0,68,0.00,,,0.00,VWS V14.01,2013-09-08 03:21:00,
2013-09-07 22:26:00,80.4,69.3,29.91,South,180,0.0,0.0,69,0.00,,,0.00,VWS V14.01,2013-09-08 03:26:00,
2013-09-07 22:30:00,80.3,69.2,29.91,South,181,0.0,0.0,69,0.00,,,0.00,VWS V14.01,2013-09-08 03:30:00,
2013-09-07 22:31:00,80.3,69.2,29.91,South,181,0.0,0.0,69,0.00,,,0.00,VWS V14.01,2013-09-08 03:31:00,
2013-09-07 22:36:00,80.2,68.7,29.91,South,181,0.0,0.0,68,0.00,,,0.00,VWS V14.01,2013-09-08 03:36:00,
2013-09-07 22:41:00,80.0,68.5,29.91,South,181,0.0,0.0,68,0.00,,,0.00,VWS V14.01,2013-09-08 03:41:00,
2013-09-07 22:46:00,79.9,68.4,29.91,South,181,0.0,0.0,68,0.00,,,0.00,VWS V14.01,2013-09-08 03:46:00,
2013-09-07 22:51:00,79.7,68.2,29.91,South,180,0.0,0.0,68,0.00,,,0.00,VWS V14.01,2013-09-08 03:51:00,
2013-09-07 22:56:00,79.6,68.1,29.91,South,180,0.0,0.0,68,0.00,,,0.00,VWS V14.01,2013-09-08 03:56:00,
2013-09-07 23:00:00,79.5,68.0,29.91,South,181,0.0,0.0,68,0.00,,,0.00,VWS V14.01,2013-09-08 04:00:00,
2013-09-07 23:01:00,79.5,68.0,29.91,South,181,0.0,0.0,68,0.00,,,0.00,VWS V14.01,2013-09-08 04:01:00,
2013-09-07 23:04:00,79.4,67.9,29.91,South,180,0.0,0.0,68,0.00,,,0.00,VWS V14.01,2013-09-08 04:04:00,
2013-09-07 23:09:00,79.3,68.3,29.91,South,181,0.0,0.0,69,0.00,,,0.00,VWS V14.01,2013-09-08 04:09:00,
2013-09-07 23:14:00,79.3,67.8,29.91,South,180,0.0,0.0,68,0.00,,,0.00,VWS V14.01,2013-09-08 04:14:00,
2013-09-07 23:19:00,79.2,67.7,29.91,South,181,0.0,0.0,68,0.00,,,0.00,VWS V14.01,2013-09-08 04:19:00,
2013-09-07 23:24:00,79.1,68.1,29.91,South,181,0.0,0.0,69,0.00,,,0.00,VWS V14.01,2013-09-08 04:24:00,
2013-09-07 23:29:00,79.0,68.0,29.91,South,181,0.0,0.0,69,0.00,,,0.00,VWS V14.01,2013-09-08 04:29:00,
2013-09-07 23:30:00,78.9,67.9,29.91,South,181,0.0,0.0,69,0.00,,,0.00,VWS V14.01,2013-09-08 04:30:00,
2013-09-07 23:34:00,78.9,67.9,29.91,South,180,0.0,0.0,69,0.00,,,0.00,VWS V14.01,2013-09-08 04:34:00,
2013-09-07 23:39:00,78.8,67.8,29.91,South,181,0.0,0.0,69,0.00,,,0.00,VWS V14.01,2013-09-08 04:39:00,
2013-09-07 23:44:00,78.7,67.7,29.91,South,180,0.0,0.0,69,0.00,,,0.00,VWS V14.01,2013-09-08 04:44:00,
2013-09-07 23:49:00,78.7,67.7,29.91,South,181,0.0,0.0,69,0.00,,,0.00,VWS V14.01,2013-09-08 04:49:00,
2013-09-07 23:55:00,78.7,67.7,29.91,South,181,0.0,0.0,69,0.00,,,0.00,VWS V14.01,2013-09-08 04:55:00,